GW2923 Weather Reports


Display with metric or nautical units.
time (UTC)temp
F
wind
direction
speed
MPH
gust
MPH
rain 1hr
in
rain 24hr
in
rain mn
in
humidity
%
barometer
mb
20260504050534 31 0 0.0 0.0 0.00 0.00 0.00 84 1004.5
20260504050104 31 0 0.0 0.0 0.00 0.00 0.00 85 1004.7
20260504045533 31 0 0.0 0.0 0.00 0.00 0.00 86 1004.8
20260504045032 30 0 0.0 0.0 0.00 0.00 0.00 86 1004.8
20260504044542 30 0 0.0 0.0 0.00 0.00 0.00 87 1004.9
20260504044033 29 0 0.0 0.0 0.00 0.00 0.00 87 1004.9
20260504043534 29 0 0.0 0.0 0.00 0.00 0.00 87 1005.0
20260504043043 29 0 0.0 0.0 0.00 0.00 0.00 88 1005.1
20260504042533 28 0 0.0 0.0 0.00 0.00 0.00 88 1005.1
20260504042033 28 0 0.0 0.0 0.00 0.00 0.00 88 1005.2
20260504041541 27 0 0.0 0.0 0.00 0.00 0.00 88 1005.3
20260504041033 27 0 0.0 0.0 0.00 0.00 0.00 89 1005.3
20260504040533 26 0 0.0 0.0 0.00 0.00 0.00 88 1005.3
20260504040042 25 0 0.0 0.0 0.00 0.00 0.00 88 1005.4
20260504035533 24 0 0.0 0.0 0.00 0.00 0.00 88 1005.4
20260504035035 24 0 0.0 0.0 0.00 0.00 0.00 88 1005.4
20260504034550 24 0 0.0 0.0 0.00 0.00 0.00 89 1005.5
20260504034036 23 0 0.0 0.0 0.00 0.00 0.00 90 1005.5
20260504033540 22 0 0.0 0.0 0.00 0.00 0.00 90 1005.4
20260504033045 22 0 0.0 1.0 0.00 0.00 0.00 91 1005.5
20260504032533 21 0 0.0 1.0 0.00 0.00 0.00 90 1005.6
20260504032038 21 0 0.0 1.0 0.00 0.00 0.00 90 1005.7
20260504031601 21 0 0.0 1.0 0.00 0.00 0.00 89 1005.7
20260504031033 21 0 0.0 1.0 0.00 0.00 0.00 89 1005.8
20260504030532 21 0 0.0 2.0 0.00 0.00 0.00 89 1005.9
20260504030044 21 0 0.0 2.0 0.00 0.00 0.00 89 1005.9
20260504025535 21 88 1.0 3.0 0.00 0.00 0.00 89 1005.9
20260504025033 21 88 1.0 3.0 0.00 0.00 0.00 89 1005.9
20260504024542 21 88 1.0 3.0 0.00 0.00 0.00 89 1006.0
20260504024033 21 88 1.0 3.0 0.00 0.00 0.00 89 1006.2
20260504023546 21 88 1.0 3.0 0.00 0.00 0.00 89 1006.3
20260504023046 21 85 1.0 4.0 0.00 0.00 0.00 89 1006.3
20260504022536 21 79 2.0 4.0 0.00 0.00 0.00 89 1006.4
20260504022033 21 86 1.0 3.0 0.00 0.00 0.00 89 1006.6
20260504021543 21 89 1.0 2.0 0.00 0.00 0.00 89 1006.5
20260504021032 21 89 1.0 3.0 0.00 0.00 0.00 89 1006.7
20260504020529 21 88 1.0 3.0 0.00 0.00 0.00 89 1006.7
20260504020042 21 0 0.0 0.0 0.00 0.00 0.00 89 1006.7
20260504015533 21 0 0.0 0.0 0.00 0.00 0.00 89 1006.8
20260504015033 21 0 0.0 0.0 0.00 0.00 0.00 89 1006.7
20260504014543 22 0 0.0 0.0 0.00 0.00 0.00 88 1006.8
20260504014032 22 0 0.0 1.0 0.00 0.00 0.00 88 1007.0
20260504013533 22 0 0.0 2.0 0.00 0.00 0.00 88 1006.8
20260504013038 22 0 0.0 2.0 0.00 0.00 0.00 88 1006.8
20260504012529 22 99 0.0 2.0 0.00 0.00 0.00 89 1006.8
20260504012029 22 0 1.0 3.0 0.00 0.00 0.00 89 1006.7
20260504011550 22 99 1.0 3.0 0.00 0.00 0.00 89 1006.7
20260504011032 22 0 1.0 3.0 0.00 0.00 0.00 89 1006.8
20260504010532 22 91 2.0 3.0 0.00 0.00 0.00 88 1006.9
20260504010046 22 85 1.0 3.0 0.00 0.00 0.00 88 1006.9
20260504005530 22 0 0.0 2.0 0.00 0.00 0.00 88 1006.8
20260504005030 23 43 1.0 2.0 0.00 0.00 0.00 88 1006.9
20260504004542 23 43 0.0 2.0 0.00 0.00 0.00 88 1006.9
20260504004029 23 43 0.0 0.0 0.00 0.00 0.00 88 1007.0
20260504003530 23 0 0.0 0.0 0.00 0.00 0.00 88 1007.1
20260504003046 23 0 0.0 0.0 0.00 0.00 0.00 88 1007.2
20260504002529 23 0 0.0 1.0 0.00 0.00 0.00 88 1007.3
20260504002032 23 0 0.0 1.0 0.00 0.00 0.00 87 1007.5
20260504001554 23 43 0.0 1.0 0.00 0.00 0.00 87 1007.4
20260504001030 24 0 0.0 0.0 0.00 0.00 0.00 87 1007.4
20260504000530 24 0 0.0 0.0 0.00 0.00 0.00 87 1007.5
20260504000053 24 0 0.0 0.0 0.00 0.00 0.00 87 1007.5
20260503235530 24 0 0.0 0.0 0.00 0.00 0.00 87 1007.5
20260503235030 24 0 0.0 2.0 0.00 0.00 0.00 86 1007.4
20260503234544 24 0 0.0 2.0 0.00 0.00 0.00 86 1007.6
20260503234033 24 43 0.0 2.0 0.00 0.00 0.00 86 1007.6
20260503233530 24 1 0.0 2.0 0.00 0.00 0.00 86 1007.5
20260503233043 25 0 0.0 0.0 0.00 0.00 0.00 86 1007.6
20260503232532 25 0 0.0 0.0 0.00 0.00 0.00 86 1007.7
20260503232033 25 0 0.0 0.0 0.00 0.00 0.00 85 1007.7
20260503231550 25 0 0.0 0.0 0.00 0.00 0.00 86 1007.7
20260503231030 25 0 0.0 0.0 0.00 0.00 0.00 85 1007.7
20260503230534 25 0 0.0 0.0 0.00 0.00 0.00 85 1007.7
20260503230041 25 0 0.0 0.0 0.00 0.00 0.00 85 1007.7
20260503225533 26 0 0.0 0.0 0.00 0.00 0.00 86 1007.8
20260503225033 26 0 0.0 0.0 0.00 0.00 0.00 86 1007.9
20260503224538 26 0 0.0 0.0 0.00 0.00 0.00 85 1007.9
20260503224033 26 0 0.0 0.0 0.00 0.00 0.00 85 1007.8
20260503223534 26 0 0.0 0.0 0.00 0.00 0.00 85 1007.8
20260503223042 26 0 0.0 0.0 0.00 0.00 0.00 84 1007.8
20260503222529 26 0 0.0 0.0 0.00 0.00 0.00 83 1007.8
20260503222029 26 0 0.0 0.0 0.00 0.00 0.00 83 1007.8
20260503221544 26 0 0.0 0.0 0.00 0.00 0.00 82 1007.8
20260503221031 26 0 0.0 0.0 0.00 0.00 0.00 81 1007.9
20260503220536 27 0 0.0 0.0 0.00 0.00 0.00 81 1007.8
20260503220042 27 0 0.0 0.0 0.00 0.00 0.00 81 1007.9
20260503215533 27 0 0.0 0.0 0.00 0.00 0.00 80 1008.0
20260503215029 27 0 0.0 0.0 0.00 0.00 0.00 80 1008.0
20260503214545 27 0 0.0 0.0 0.00 0.00 0.00 79 1008.0
20260503214033 27 0 0.0 0.0 0.00 0.00 0.00 80 1008.0
20260503213532 28 0 0.0 0.0 0.00 0.00 0.00 79 1008.0
20260503213117 28 0 0.0 0.0 0.00 0.00 0.00 78 1008.0
20260503212533 28 0 0.0 0.0 0.00 0.00 0.00 77 1008.1
20260503212029 28 0 0.0 0.0 0.00 0.00 0.00 78 1008.1
20260503211600 29 0 0.0 0.0 0.00 0.00 0.00 78 1008.1
20260503211032 29 0 0.0 0.0 0.00 0.00 0.00 77 1008.1
20260503210534 29 0 0.0 0.0 0.00 0.00 0.00 76 1008.1
20260503210047 29 0 0.0 0.0 0.00 0.00 0.00 75 1008.2
20260503205533 29 0 0.0 0.0 0.00 0.00 0.00 75 1008.2
20260503205036 30 0 0.0 0.0 0.00 0.00 0.00 75 1008.2
20260503204602 30 0 0.0 0.0 0.00 0.00 0.00 74 1008.4
20260503204032 30 0 0.0 0.0 0.00 0.00 0.00 74 1008.4
20260503203533 31 0 0.0 0.0 0.00 0.00 0.00 73 1008.4
20260503203049 31 0 0.0 0.0 0.00 0.00 0.00 73 1008.5
20260503202532 31 0 0.0 0.0 0.00 0.00 0.00 72 1008.4
20260503202032 32 0 0.0 1.0 0.00 0.00 0.00 72 1008.5
20260503201545 32 0 0.0 1.0 0.00 0.00 0.00 71 1008.6
20260503201035 33 0 0.0 0.0 0.00 0.00 0.00 70 1008.5
20260503200533 33 0 0.0 0.0 0.00 0.00 0.00 69 1008.5
20260503200048 34 0 0.0 0.0 0.00 0.00 0.00 68 1008.5
20260503195534 34 0 0.0 1.0 0.00 0.00 0.00 69 1008.5
20260503195033 35 0 0.0 1.0 0.00 0.00 0.00 68 1008.5
20260503194549 35 0 0.0 1.0 0.00 0.00 0.00 68 1008.5
20260503194033 35 0 0.0 1.0 0.00 0.00 0.00 67 1008.4
20260503193533 36 0 0.0 3.0 0.00 0.00 0.00 66 1008.5
20260503193046 36 0 0.0 3.0 0.00 0.00 0.00 66 1008.4
20260503192534 36 287 1.0 3.0 0.00 0.00 0.00 66 1008.4
20260503192032 37 275 0.0 2.0 0.00 0.00 0.00 65 1008.3
20260503191602 37 0 0.0 2.0 0.00 0.00 0.00 65 1008.2
20260503191032 37 0 0.0 2.0 0.00 0.00 0.00 65 1008.2
20260503190535 37 0 0.0 3.0 0.00 0.00 0.00 65 1008.2
20260503190049 37 0 0.0 4.0 0.00 0.00 0.00 67 1008.0
20260503185534 37 278 1.0 7.0 0.00 0.00 0.00 67 1008.1
20260503185034 37 278 2.0 7.0 0.00 0.00 0.00 66 1008.0
20260503184605 37 278 3.0 7.0 0.00 0.00 0.00 65 1008.0
20260503184039 38 274 2.0 6.0 0.00 0.00 0.00 65 1008.0
20260503183533 38 266 3.0 6.0 0.00 0.00 0.00 64 1008.0
20260503183046 38 256 2.0 7.0 0.00 0.00 0.00 63 1007.9
20260503182532 39 276 2.0 7.0 0.00 0.00 0.00 60 1008.0
20260503182033 39 268 3.0 7.0 0.00 0.00 0.00 57 1007.9
20260503181551 40 287 0.0 3.0 0.00 0.00 0.00 56 1007.9
20260503181033 41 292 0.0 4.0 0.00 0.00 0.00 54 1007.8
20260503180533 42 0 1.0 4.0 0.00 0.00 0.00 52 1007.7
20260503180049 42 288 1.0 4.0 0.00 0.00 0.00 51 1007.7
20260503175534 43 280 1.0 4.0 0.00 0.00 0.00 48 1007.7
20260503175032 43 297 0.0 5.0 0.00 0.00 0.00 47 1007.7
20260503174601 44 290 1.0 6.0 0.00 0.00 0.00 45 1007.7
20260503174032 44 305 1.0 6.0 0.00 0.00 0.00 47 1007.7
20260503173532 44 265 1.0 6.0 0.00 0.00 0.00 44 1007.6
20260503173051 45 0 1.0 6.0 0.00 0.00 0.00 41 1007.5
20260503172533 45 294 0.0 7.0 0.00 0.00 0.00 40 1007.5
20260503172034 46 0 1.0 11.0 0.00 0.00 0.00 39 1007.5
20260503171542 46 271 6.0 11.0 0.00 0.00 0.00 37 1007.5
20260503171034 47 271 2.0 7.0 0.00 0.00 0.00 37 1007.4
20260503170530 47 340 2.0 7.0 0.00 0.00 0.00 36 1007.5
20260503150535 50 296 7.0 13.0 0.00 0.00 0.00 38 1007.9
20260503131030 52 265 8.0 16.0 0.00 0.00 0.00 35 1008.1
20260503130533 52 4 5.0 11.0 0.00 0.00 0.00 34 1008.1
20260503110535 51 295 11.0 16.0 0.00 0.00 0.00 38 1008.2
20260503081554 48 255 8.0 14.0 0.00 0.00 0.00 53 1008.3
20260503081031 47 272 7.0 13.0 0.00 0.00 0.00 53 1008.3
20260503080530 46 263 8.0 13.0 0.00 0.00 0.00 52 1008.2
20260503072532 46 303 7.0 13.0 0.00 0.00 0.00 59 1008.3